Regional Weather Roundup
Issued by NWS

Home | Current Version | Previous Version | Graphics & Text | Print | Product List | Glossary On
Versions: 1 2 3 4 5 6 7 8 9 10 11 12 13 14 15 16 17 18 19 20 21 22 23 24 25 26 27 28 29 30 31 32 33 34 35 36 37 38 39 40 41 42 43 44 45 46 47 48 49 50
000
ASUS43 KLMK 291510
RWRKY
KENTUCKY REGIONAL WEATHER ROUNDUP
NATIONAL WEATHER SERVICE LOUISVILLE KY
1000 AM EST THU JAN 29 2015

NOTE "FAIR" INDICATES FEW OR NO CLOUDS BELOW 12,000 FEET
WITH NO SIGNIFICANT WEATHER AND/OR OBSTRUCTIONS TO VISIBILITY.

KYZ001>023-026-027-061>063-070>075-291600-
WESTERN AND SOUTH CENTRAL KENTUCKY

CITY           SKY/WX    TMP DP  RH WIND       PRES   REMARKS
PADUCAH        SUNNY     56  43  61 W14       29.99R
HENDERSON      PTSUNNY   54  39  58 W18G26    29.94R
OWENSBORO      SUNNY     55  40  57 SW16      29.94R
HOPKINSVILLE   SUNNY     57  39  51 SW23G31   29.98R
BOWLING GREEN  SUNNY     53  35  50 S17G24    29.98F
GLASGOW        MOSUNNY   51  33  51 S12G21    29.99S
$$

KYZ024-025-028>034-038-045-046-053-291600-
NORTH CENTRAL KENTUCKY

CITY           SKY/WX    TMP DP  RH WIND       PRES   REMARKS
LOUISVILLE/SDF PTSUNNY   52  36  54 SW15G22   29.90S
LOUISVILLE/LOU PTSUNNY   49  35  58 S8        29.91S
FORT KNOX      PTSUNNY   50  36  58 S20G26    29.91S
$$

KYZ035>037-039>044-047>052-055>060-089>105-291600-
NORTHEAST KENTUCKY

CITY           SKY/WX    TMP DP  RH WIND       PRES   REMARKS
LEXINGTON      CLOUDY    44  32  62 S17G25    29.93S
COVINGTON      PTSUNNY   45  33  63 SW17G26   29.85
FRANKFORT      MOSUNNY   46  33  60 S17G26    29.91F
$$

KYZ054-064>069-076>088-106>120-291600-
SOUTHEAST KENTUCKY

CITY           SKY/WX    TMP DP  RH WIND       PRES   REMARKS
JACKSON        LGT RAIN  39  31  72 SW7       29.99F WCI  34
LONDON         LGT RAIN  42  31  64 S7        30.04F
SOMERSET       LGT RAIN  41  32  70 SW9       30.05R
MIDDLESBORO    RAIN      38  27  65 S14G21    30.13F WCI  29
MONTICELLO     CLOUDY    46  36  68 S14G22    30.06R
$$



USA.gov is the U.S. government's official web portal to all federal, state and local government web resources and services.